Location: Caltech
(34.1382°N, 118.1253°W)
Time: 15:20:56
(UTC-07:00)

SL-16 R/B - Visible Passes

Search period start: 24 July 2016 00:00
Search period end: 03 August 2016 00:00
Orbit: 842 x 846 km, 71.0° (Epoch: 24 July)

Date Brightness Start Highest point End Pass type
(mag) Time Alt. Az. Time Alt. Az. Time Alt. Az.
24 Jul 3.6 04:35:43 10° SSE 04:40:47 35° ESE 04:45:52 10° NE visible
25 Jul 3.6 04:21:33 10° SSE 04:26:33 33° ESE 04:31:35 10° NE visible
26 Jul 3.7 04:07:25 10° SSE 04:12:20 32° ESE 04:17:18 10° NE visible
27 Jul 3.7 03:54:08 14° SSE 03:58:07 31° ESE 04:03:01 10° NE visible
28 Jul 3.7 03:40:48 18° SSE 03:43:53 29° ESE 03:48:43 10° NE visible
28 Jul 3.1 05:22:51 10° SW 05:27:51 32° WNW 05:32:54 10° N visible
29 Jul 3.7 03:27:24 21° SE 03:29:41 28° ESE 03:34:26 10° NE visible
29 Jul 3.1 05:09:17 14° WSW 05:13:35 33° WNW 05:18:42 10° N visible
30 Jul 3.7 03:13:56 24° SE 03:15:27 27° ESE 03:20:08 10° NE visible
30 Jul 3.0 04:55:50 18° WSW 04:59:21 34° WNW 05:04:30 10° N visible
31 Jul 3.7 03:00:27 25° ESE 03:01:15 26° ESE 03:05:50 10° NE visible
31 Jul 3.0 04:42:19 23° WSW 04:45:06 36° WNW 04:50:18 10° N visible
01 Aug 3.8 02:46:53 25° ESE 02:47:02 25° ESE 02:51:32 10° NE visible
01 Aug 2.9 04:28:46 28° WSW 04:30:51 37° WNW 04:36:06 10° N visible
02 Aug 3.9 02:33:18 24° E 02:33:18 24° E 02:37:14 10° NE visible
02 Aug 2.9 04:15:10 33° W 04:16:36 39° WNW 04:21:54 10° N visible
